Location: Gunung Kajang
(2.4167°N, 113.7167°E)
Time: 16:38:33
(UTC+00:00)

Cosmos 2227 Rocket - Pass Details

Date: 29 May 2022
Orbit: 838 x 846 km, 71.0° (Epoch: 29 June)

Event Time Altitude Azimuth Distance (km) Brightness Sun altitude
Rises 12:52:41 0° 351° (N) 3,386 5.8 -33.4°
Reaches altitude 10° 12:55:09 10° 355° (N) 2,452 4.9 -33.9°
Enters shadow 12:57:13 23° 1° (N) 1,711 4.0 -34.4°
